* Astronomy

Members Login
Username 
 
Password 
    Remember Me  
Post Info TOPIC: Asteroid 2012 BZ76


L

Posts: 131433
Date:
Asteroid 2012 BZ76
Permalink  
 


Orbital elements:
2012 BZ76                                                Earth MOID = 0.1049 AU
Epoch 2012 Mar. 14.0 TT = JDT 2456000.5                 MPC
M 337.70674              (2000.0)            P               Q
n   0.25216843     Peri.    9.45743     -0.34026610     +0.93346372
a   2.4812789      Node   240.72361     -0.87101130     -0.35833425
e   0.6929722      Incl.    7.47134     -0.35434206     -0.01555806
P   3.91           H   18.8           G   0.15           U   8

MPEC 2012 - B81



__________________
Page 1 of 1  sorted by
 
Quick Reply

Please log in to post quick replies.



Create your own FREE Forum
Report Abuse
Powered by ActiveBoard